User: anonymous   Login
Location: Mt. Cuba Astronomical Observatory
(39.8100°N, 75.6300°W)
Time: 18:05:33
(UTC-05:00)
Language:

Cosmos 2058 - Orbit

View from above orbital plane
View from above orbital plane
View from above satellite
View from above satellite

Ground track
Ground track

The orbit data is extracted from the following two-line orbital elements,

1 20465U 90010A   14353.85087512  .00003132  00000-0  27871-3 0  3080
2 20465 082.4911 042.2623 0017870 117.0666 243.2382 14.95650989349155
Epoch (UTC): 19 December 2014 20:25:15
Eccentricity: 0.0017870
inclination: 82.4911°
perigee height: 568 km
apogee height: 593 km
right ascension of ascending node: 42.2623°
argument of perigee: 117.0666°
revolutions per day: 14.95650989
mean anomaly at epoch: 243.2382°
orbit number at epoch: 34915

The dashed part of the orbit path shows where the satellite is in the earth's shadow,  

DLR